Time,TemperatureF,DewpointF,PressureIn,WindDirection,WindDirectionDegrees,WindSpeedMPH,WindSpeedGustMPH,Humidity,HourlyPrecipIn,Conditions,Clouds,dailyrainin,SolarRadiationWatts/m^2,SoftwareType,DateUTC
2013-09-09 00:44:00,50.0,47.0,-100.00,South,177,5.0,9.0,91,0.00,,,0.00,0.000000,,2013-09-09 04:44:00,
2013-09-09 00:54:00,50.0,47.0,-100.00,South,177,5.0,9.0,91,0.00,,,0.00,0.000000,,2013-09-09 04:54:00,
2013-09-09 01:03:00,50.0,47.0,-100.00,South,177,5.0,9.0,91,0.00,,,0.00,0.000000,,2013-09-09 05:03:00,
2013-09-09 01:23:00,50.0,48.0,-100.00,SSE,159,3.0,6.0,93,0.00,,,0.00,0.000000,,2013-09-09 05:23:00,
2013-09-09 01:34:00,50.0,48.0,-100.00,SSE,159,3.0,6.0,93,0.00,,,0.00,0.000000,,2013-09-09 05:34:00,
2013-09-09 01:43:00,50.0,48.0,-100.00,SSE,159,3.0,6.0,93,0.00,,,0.00,0.000000,,2013-09-09 05:43:00,
2013-09-09 01:53:00,50.0,48.0,-100.00,SSE,159,3.0,6.0,93,0.00,,,0.00,0.000000,,2013-09-09 05:53:00,
2013-09-09 02:02:00,50.0,48.0,-100.00,SSE,159,3.0,6.0,93,0.00,,,0.00,0.000000,,2013-09-09 06:02:00,
2013-09-09 02:22:00,51.0,49.0,-100.00,SSE,150,4.0,7.0,92,0.00,,,0.00,0.000000,,2013-09-09 06:22:00,
2013-09-09 02:32:00,51.0,49.0,-100.00,SSE,150,4.0,7.0,92,0.00,,,0.00,0.000000,,2013-09-09 06:32:00,
2013-09-09 02:42:00,51.0,49.0,-100.00,SSE,150,4.0,7.0,92,0.00,,,0.00,0.000000,,2013-09-09 06:42:00,
2013-09-09 02:52:00,51.0,49.0,-100.00,SSE,150,4.0,7.0,92,0.00,,,0.00,0.000000,,2013-09-09 06:52:00,
2013-09-09 03:02:00,51.0,49.0,-100.00,SSE,150,4.0,7.0,92,0.00,,,0.00,0.000000,,2013-09-09 07:02:00,
2013-09-09 03:22:00,50.0,48.0,-100.00,SSE,150,3.0,5.0,94,0.00,,,0.00,0.000000,,2013-09-09 07:22:00,
2013-09-09 03:32:00,50.0,48.0,-100.00,SSE,150,3.0,5.0,94,0.00,,,0.00,0.000000,,2013-09-09 07:32:00,
2013-09-09 03:43:00,50.0,48.0,-100.00,SSE,150,3.0,5.0,94,0.00,,,0.00,0.000000,,2013-09-09 07:43:00,
2013-09-09 03:52:00,50.0,48.0,-100.00,SSE,150,3.0,5.0,94,0.00,,,0.00,0.000000,,2013-09-09 07:52:00,
2013-09-09 04:02:00,50.0,48.0,-100.00,SSE,150,3.0,5.0,94,0.00,,,0.00,0.000000,,2013-09-09 08:02:00,
2013-09-09 04:22:00,50.0,49.0,-100.00,SSE,158,4.0,6.0,96,0.00,,,0.00,0.000000,,2013-09-09 08:22:00,
2013-09-09 04:32:00,50.0,49.0,-100.00,SSE,158,4.0,6.0,96,0.00,,,0.00,0.000000,,2013-09-09 08:32:00,
2013-09-09 04:43:00,50.0,49.0,-100.00,SSE,158,4.0,6.0,96,0.00,,,0.00,0.000000,,2013-09-09 08:43:00,
2013-09-09 04:52:00,50.0,49.0,-100.00,SSE,158,4.0,6.0,96,0.00,,,0.00,0.000000,,2013-09-09 08:52:00,
2013-09-09 05:02:00,50.0,49.0,-100.00,SSE,158,4.0,6.0,96,0.00,,,0.00,0.000000,,2013-09-09 09:02:00,
2013-09-09 05:22:00,51.0,50.0,-100.00,SSE,167,4.0,7.0,97,0.00,,,0.00,0.000000,,2013-09-09 09:22:00,
2013-09-09 05:33:00,51.0,50.0,-100.00,SSE,167,4.0,7.0,97,0.00,,,0.00,0.000000,,2013-09-09 09:33:00,
2013-09-09 05:43:00,51.0,50.0,-100.00,SSE,167,4.0,7.0,97,0.00,,,0.00,0.000000,,2013-09-09 09:43:00,
2013-09-09 05:54:00,51.0,50.0,-100.00,SSE,167,4.0,7.0,97,0.00,,,0.00,0.000000,,2013-09-09 09:54:00,
2013-09-09 06:03:00,51.0,50.0,-100.00,SSE,167,4.0,7.0,97,0.00,,,0.00,0.000000,,2013-09-09 10:03:00,
2013-09-09 06:43:00,51.0,50.0,-100.00,SSE,165,2.0,7.0,96,0.00,,,0.00,0.000000,,2013-09-09 10:43:00,
2013-09-09 06:53:00,51.0,50.0,-100.00,SSE,165,2.0,7.0,96,0.00,,,0.00,0.000000,,2013-09-09 10:53:00,
2013-09-09 07:02:00,51.0,50.0,-100.00,SSE,165,2.0,7.0,96,0.00,,,0.00,0.000000,,2013-09-09 11:02:00,
2013-09-09 07:22:00,51.0,50.0,-100.00,South,186,6.0,8.0,97,0.00,,,0.00,0.000000,,2013-09-09 11:22:00,
2013-09-09 07:34:00,51.0,50.0,-100.00,South,186,6.0,8.0,97,0.00,,,0.00,0.000000,,2013-09-09 11:34:00,
2013-09-09 07:42:00,51.0,50.0,-100.00,South,186,6.0,8.0,97,0.00,,,0.00,0.000000,,2013-09-09 11:42:00,
2013-09-09 07:52:00,51.0,50.0,-100.00,South,186,6.0,8.0,97,0.00,,,0.00,0.000000,,2013-09-09 11:52:00,
2013-09-09 08:02:00,51.0,50.0,-100.00,South,186,6.0,8.0,97,0.00,,,0.00,0.000000,,2013-09-09 12:02:00,
2013-09-09 08:42:00,52.0,51.0,-100.00,South,179,3.0,7.0,96,0.00,,,0.00,13.000000,,2013-09-09 12:42:00,
2013-09-09 08:52:00,52.0,51.0,-100.00,South,179,3.0,7.0,96,0.00,,,0.00,13.000000,,2013-09-09 12:52:00,
2013-09-09 09:01:00,52.0,51.0,-100.00,South,179,3.0,7.0,96,0.00,,,0.00,13.000000,,2013-09-09 13:01:00,
2013-09-09 09:42:00,55.0,53.0,-100.00,South,183,6.0,8.0,92,0.00,,,0.00,97.000000,,2013-09-09 13:42:00,
2013-09-09 09:52:00,55.0,53.0,-100.00,South,183,6.0,8.0,92,0.00,,,0.00,97.000000,,2013-09-09 13:52:00,
2013-09-09 10:02:00,55.0,53.0,-100.00,South,183,6.0,8.0,92,0.00,,,0.00,97.000000,,2013-09-09 14:02:00,
2013-09-09 10:22:00,57.0,53.0,-100.00,SSW,198,6.0,9.0,88,0.00,,,0.00,122.000000,,2013-09-09 14:22:00,
2013-09-09 10:32:00,57.0,53.0,-100.00,SSW,198,6.0,9.0,88,0.00,,,0.00,122.000000,,2013-09-09 14:32:00,
2013-09-09 10:42:00,57.0,53.0,-100.00,SSW,198,6.0,9.0,88,0.00,,,0.00,122.000000,,2013-09-09 14:42:00,
2013-09-09 10:52:00,57.0,53.0,-100.00,SSW,198,6.0,9.0,88,0.00,,,0.00,122.000000,,2013-09-09 14:52:00,
2013-09-09 11:02:00,57.0,53.0,-100.00,SSW,198,6.0,9.0,88,0.00,,,0.00,122.000000,,2013-09-09 15:02:00,
2013-09-09 11:04:00,61.0,55.0,-100.00,SSW,205,6.0,10.0,81,0.00,,,0.00,209.000000,,2013-09-09 15:04:00,
2013-09-09 11:43:00,61.0,55.0,-100.00,SSW,205,6.0,10.0,81,0.00,,,0.00,209.000000,,2013-09-09 15:43:00,
2013-09-09 11:53:00,61.0,55.0,-100.00,SSW,205,6.0,10.0,81,0.00,,,0.00,209.000000,,2013-09-09 15:53:00,
2013-09-09 12:25:00,63.0,56.0,-100.00,SSW,205,7.0,11.0,78,0.00,,,0.00,144.000000,,2013-09-09 16:25:00,
2013-09-09 12:34:00,63.0,56.0,-100.00,SSW,205,7.0,11.0,78,0.00,,,0.00,144.000000,,2013-09-09 16:34:00,
2013-09-09 12:44:00,63.0,56.0,-100.00,SSW,205,7.0,11.0,78,0.00,,,0.00,144.000000,,2013-09-09 16:44:00,
2013-09-09 12:54:00,63.0,56.0,-100.00,SSW,205,7.0,11.0,78,0.00,,,0.00,144.000000,,2013-09-09 16:54:00,
2013-09-09 13:03:00,63.0,56.0,-100.00,SSW,205,7.0,11.0,78,0.00,,,0.00,144.000000,,2013-09-09 17:03:00,
2013-09-09 13:43:00,62.0,56.0,-100.00,South,187,5.0,13.0,82,0.00,,,0.00,79.000000,,2013-09-09 17:43:00,
2013-09-09 13:53:00,62.0,56.0,-100.00,South,187,5.0,13.0,82,0.00,,,0.00,79.000000,,2013-09-09 17:53:00,
2013-09-09 14:02:00,62.0,56.0,-100.00,South,187,5.0,13.0,82,0.00,,,0.00,79.000000,,2013-09-09 18:02:00,
2013-09-09 14:42:00,61.0,56.0,-100.00,South,180,5.0,8.0,84,0.00,,,0.00,57.000000,,2013-09-09 18:42:00,
2013-09-09 14:52:00,61.0,56.0,-100.00,South,180,5.0,8.0,84,0.00,,,0.00,57.000000,,2013-09-09 18:52:00,
2013-09-09 15:02:00,61.0,56.0,-100.00,South,180,5.0,8.0,84,0.00,,,0.00,57.000000,,2013-09-09 19:02:00,
2013-09-09 15:22:00,62.0,59.0,-100.00,SSE,147,5.0,9.0,91,0.00,,,0.00,109.000000,,2013-09-09 19:22:00,
2013-09-09 15:32:00,62.0,59.0,-100.00,SSE,147,5.0,9.0,91,0.00,,,0.00,109.000000,,2013-09-09 19:32:00,
2013-09-09 15:43:00,62.0,59.0,-100.00,SSE,147,5.0,9.0,91,0.00,,,0.00,109.000000,,2013-09-09 19:43:00,
2013-09-09 15:52:00,62.0,59.0,-100.00,SSE,147,5.0,9.0,91,0.00,,,0.00,109.000000,,2013-09-09 19:52:00,
2013-09-09 16:03:00,62.0,59.0,-100.00,SSE,147,5.0,9.0,91,0.00,,,0.00,109.000000,,2013-09-09 20:03:00,
2013-09-09 16:42:00,64.0,59.0,-100.00,South,177,7.0,13.0,85,0.00,,,0.00,156.000000,,2013-09-09 20:42:00,
2013-09-09 16:53:00,64.0,59.0,-100.00,South,177,7.0,13.0,85,0.00,,,0.00,156.000000,,2013-09-09 20:53:00,
2013-09-09 17:02:00,64.0,59.0,-100.00,South,177,7.0,13.0,85,0.00,,,0.00,156.000000,,2013-09-09 21:02:00,
2013-09-09 17:04:00,63.0,59.0,-100.00,South,177,10.0,16.0,86,0.00,,,0.00,84.000000,,2013-09-09 21:04:00,
2013-09-09 17:44:00,63.0,59.0,-100.00,South,177,10.0,16.0,86,0.00,,,0.00,84.000000,,2013-09-09 21:44:00,
2013-09-09 17:54:00,63.0,59.0,-100.00,South,177,10.0,16.0,86,0.00,,,0.00,84.000000,,2013-09-09 21:54:00,
2013-09-09 18:43:00,63.0,58.0,-100.00,SSW,200,4.0,17.0,85,0.00,,,0.00,70.000000,,2013-09-09 22:43:00,
2013-09-09 18:54:00,63.0,58.0,-100.00,SSW,200,4.0,17.0,85,0.00,,,0.00,70.000000,,2013-09-09 22:54:00,
2013-09-09 19:03:00,63.0,58.0,-100.00,SSW,200,4.0,17.0,85,0.00,,,0.00,70.000000,,2013-09-09 23:03:00,
2013-09-09 19:22:00,63.0,59.0,-100.00,ESE,102,2.0,7.0,86,0.00,,,0.00,23.000000,,2013-09-09 23:22:00,
2013-09-09 19:34:00,63.0,59.0,-100.00,ESE,102,2.0,7.0,86,0.00,,,0.00,23.000000,,2013-09-09 23:34:00,
2013-09-09 19:43:00,63.0,59.0,-100.00,ESE,102,2.0,7.0,86,0.00,,,0.00,23.000000,,2013-09-09 23:43:00,
2013-09-09 19:52:00,63.0,59.0,-100.00,ESE,102,2.0,7.0,86,0.00,,,0.00,23.000000,,2013-09-09 23:52:00,
2013-09-09 20:02:00,63.0,59.0,-100.00,ESE,102,2.0,7.0,86,0.00,,,0.00,23.000000,,2013-09-10 00:02:00,
2013-09-09 20:22:00,63.0,59.0,-100.00,East,84,2.0,6.0,88,0.00,,,0.00,8.000000,,2013-09-10 00:22:00,
2013-09-09 20:32:00,63.0,59.0,-100.00,East,84,2.0,6.0,88,0.00,,,0.00,8.000000,,2013-09-10 00:32:00,
2013-09-09 20:42:00,63.0,59.0,-100.00,East,84,2.0,6.0,88,0.00,,,0.00,8.000000,,2013-09-10 00:42:00,
2013-09-09 20:52:00,63.0,59.0,-100.00,East,84,2.0,6.0,88,0.00,,,0.00,8.000000,,2013-09-10 00:52:00,
2013-09-09 21:01:00,63.0,59.0,-100.00,East,84,2.0,6.0,88,0.00,,,0.00,8.000000,,2013-09-10 01:01:00,
2013-09-09 21:42:00,62.0,59.0,-100.00,SE,126,3.0,5.0,90,0.00,,,0.00,0.000000,,2013-09-10 01:42:00,
2013-09-09 21:53:00,62.0,59.0,-100.00,SE,126,3.0,5.0,90,0.00,,,0.00,0.000000,,2013-09-10 01:53:00,
2013-09-09 22:03:00,62.0,59.0,-100.00,SE,126,3.0,5.0,90,0.00,,,0.00,0.000000,,2013-09-10 02:03:00,
2013-09-09 22:42:00,61.0,60.0,-100.00,SSE,150,5.0,8.0,95,0.00,,,0.00,0.000000,,2013-09-10 02:42:00,
2013-09-09 22:52:00,61.0,60.0,-100.00,SSE,150,5.0,8.0,95,0.00,,,0.00,0.000000,,2013-09-10 02:52:00,
2013-09-09 23:02:00,61.0,60.0,-100.00,SSE,150,5.0,8.0,95,0.00,,,0.00,0.000000,,2013-09-10 03:02:00,
2013-09-09 23:04:00,61.0,60.0,-100.00,East,83,4.0,9.0,95,0.04,,,0.04,0.000000,,2013-09-10 03:04:00,
2013-09-09 23:22:00,61.0,60.0,-100.00,East,83,4.0,9.0,95,0.04,,,0.04,0.000000,,2013-09-10 03:22:00,
2013-09-09 23:35:00,61.0,60.0,-100.00,East,83,4.0,9.0,95,0.04,,,0.04,0.000000,,2013-09-10 03:35:00,
2013-09-09 23:44:00,61.0,60.0,-100.00,East,83,4.0,9.0,95,0.04,,,0.04,0.000000,,2013-09-10 03:44:00,
2013-09-09 23:55:00,61.0,60.0,-100.00,East,83,4.0,9.0,95,0.04,,,0.04,0.000000,,2013-09-10 03:55:00,